Weather History for Melbourne Airport, Victoria

Change the Weather History Date:

Wednesday, September 4, 2013

  Actual Average Record
Temperature  
Mean Temperature 66 °F -  
Max Temperature 73 °F 61 °F - ()
Min Temperature 58 °F 43 °F - ()
Growing Degree Days 16 (Base 50)    
Moisture  
Dew Point 52 °F    
Average Humidity 56    
Maximum Humidity 82    
Minimum Humidity 37    
Precipitation  
Precipitation 0.00 in 0.06 in - ()
Sea Level Pressure  
Sea Level Pressure 30.22 in    
Wind  
Wind Speed 18 mph ()    
Max Wind Speed 36 mph    
Max Gust Speed 50 mph    
Visibility 9.6 miles    
Events Rain    
T = Trace of Precipitation, MM = Missing Value Source: Averaged Metar Reports

Daily Weather History Graph

Daily Weather History Graph

Search for Another Location

Airport:

Trip Planner

Search our weather history database for the weather conditions in past years. The results will help you decide how hot, cold, wet, or windy it might be!

Date:

Astronomy

Sep. 04, 2013 Rise Set
Actual Time 6:38 AM EST 6:01 PM EST
Civil Twilight 6:11 AM EST 6:28 PM EST
Nautical Twilight 5:41 AM EST 6:58 PM EST
Astronomical Twilight 5:11 AM EST 7:29 PM EST
Moon 5:29 AM EST (9/4) 4:55 PM EST (9/4)
Length of Visible Light 12h 16m
Length of Day
11h 23m
Waning Crescent, 2% of the Moon is Illuminated
Sep 4
Waning Crescent
Sep 5
New
Sep 13
First Quarter
Sep 19
Full
Sep 27
Last Quarter

Hourly Weather History & Observations

Time (EST) Temp. Dew Point Humidity Pressure Visibility Wind Dir Wind Speed Gust Speed Precip Events Conditions
12:00 AM 59 °F 53 °F 74% 30.34 in 12 mi North 9.2 mph - -   Haze
12:00 AM 59.0 °F 53.6 °F 82% 30.33 in - North 9.2 mph - N/A   Clear
12:30 AM 62.6 °F 53.6 °F 72% 30.33 in - NNE 5.8 mph - N/A   Clear
1:00 AM 62 °F 53 °F 64% 30.32 in - North 11.5 mph - -  
1:00 AM 62.6 °F 53.6 °F 72% 30.30 in - North 11.5 mph - N/A   Clear
1:30 AM 62.6 °F 53.6 °F 72% 30.30 in - North 4.6 mph - N/A   Clear
2:00 AM 62 °F 53 °F 63% 30.31 in - North 16.1 mph - -  
2:00 AM 62.6 °F 51.8 °F 68% 30.30 in - North 16.1 mph - N/A   Clear
2:30 AM 62.6 °F 51.8 °F 68% 30.30 in - North 11.5 mph - N/A   Clear
3:00 AM 60 °F 53 °F 72% 30.30 in 12 mi North 10.4 mph - -   Haze
3:00 AM 60.8 °F 53.6 °F 77% 30.30 in - North 10.4 mph - N/A   Clear
3:30 AM 60.8 °F 53.6 °F 77% 30.27 in - North 11.5 mph 25.3 mph N/A   Clear
4:00 AM 62 °F 52 °F 61% 30.29 in - North 19.6 mph - -  
4:00 AM 62.6 °F 51.8 °F 68% 30.27 in - North 19.6 mph - N/A   Clear
4:30 AM 62.6 °F 51.8 °F 68% 30.27 in - North 19.6 mph - N/A   Clear
5:00 AM 62 °F 51 °F 57% 30.30 in - North 18.4 mph - -  
5:00 AM 62.6 °F 50.0 °F 63% 30.27 in - North 18.4 mph - N/A   Clear
5:30 AM 60.8 °F 51.8 °F 72% 30.30 in - North 10.4 mph - N/A   Clear
6:00 AM 62 °F 51 °F 57% 30.30 in 16 mi North 19.6 mph - -   Haze
6:00 AM 62.6 °F 50.0 °F 63% 30.27 in - North 19.6 mph - N/A   Clear
6:30 AM 62.6 °F 51.8 °F 68% 30.30 in - North 16.1 mph - N/A   Clear
7:00 AM 62.6 °F 51.8 °F 68% 30.30 in - North 17.3 mph - N/A   Clear
7:30 AM 62.6 °F 50.0 °F 63% 30.30 in - North 21.9 mph - N/A   Clear
8:00 AM 62 °F 50 °F 56% 30.30 in - North 23.0 mph - -  
8:00 AM 60.8 °F 50.0 °F 68% 30.27 in - North 23.0 mph - N/A   Clear
8:21 AM 62.6 °F 50.0 °F 63% 30.27 in - NNE 24.2 mph 35.7 mph N/A   Clear
8:34 AM 62.6 °F 50.0 °F 63% 30.27 in - North 26.5 mph 40.3 mph N/A   Clear
9:00 AM 65 °F 49 °F 46% 30.28 in 22 mi North 33.4 mph - -   Partly Cloudy
9:00 AM 64.4 °F 50.0 °F 59% 30.27 in - North 33.4 mph 47.2 mph N/A   Clear
9:30 AM 66.2 °F 48.2 °F 52% 30.27 in - North 35.7 mph 47.2 mph N/A   Clear
10:00 AM 67 °F 49 °F 41% 30.28 in - North 33.4 mph - -  
10:00 AM 68.0 °F 48.2 °F 49% 30.27 in - North 33.4 mph 44.9 mph N/A   Clear
10:30 AM 68.0 °F 48.2 °F 49% 30.27 in - North 23.0 mph - N/A   Clear
10:49 AM 68.0 °F 48.2 °F 49% 30.27 in - North 21.9 mph 33.4 mph N/A   Clear
11:00 AM 70 °F 49 °F 37% 30.28 in - North 24.2 mph - -  
11:00 AM 69.8 °F 50.0 °F 49% 30.27 in - North 24.2 mph - N/A   Clear
11:30 AM 71.6 °F 50.0 °F 46% 30.24 in - North 27.6 mph - N/A   Clear
11:43 AM 69.8 °F 50.0 °F 49% 30.24 in - North 25.3 mph 36.8 mph N/A   Clear
12:00 PM 70 °F 50 °F 38% 30.25 in 22 mi North 24.2 mph - -   Partly Cloudy
12:00 PM 69.8 °F 50.0 °F 49% 30.24 in - North 24.2 mph - N/A   Clear
12:30 PM 71.6 °F 50.0 °F 46% 30.21 in - North 20.7 mph - N/A   Clear
1:00 PM 71.6 °F 50.0 °F 46% 30.21 in - North 21.9 mph - N/A   Clear
1:30 PM 71.6 °F 51.8 °F 50% 30.21 in - North 21.9 mph - N/A   Clear
2:00 PM 72 °F 52 °F 39% 30.21 in - North 20.7 mph - -  
2:00 PM 71.6 °F 51.8 °F 50% 30.18 in - North 20.7 mph - N/A   Clear
2:30 PM 71.6 °F 51.8 °F 50% 30.18 in - North 23.0 mph - N/A   Clear
2:39 PM 71.6 °F 51.8 °F 50% 30.18 in - North 20.7 mph 32.2 mph N/A   Unknown
3:00 PM 72 °F 53 °F 40% 30.20 in 22 mi North 20.7 mph - -   Partly Cloudy
3:00 PM 73.4 °F 51.8 °F 47% 30.18 in - North 20.7 mph - N/A   Clear
3:30 PM 73.4 °F 53.6 °F 50% 30.18 in - North 19.6 mph - N/A   Clear
4:00 PM 72 °F 54 °F 44% 30.19 in - North 18.4 mph - -  
4:00 PM 71.6 °F 55.4 °F 57% 30.18 in - North 18.4 mph - N/A   Clear
4:05 PM 71.6 °F 53.6 °F 53% 30.18 in - North 19.6 mph 31.1 mph N/A   Clear
4:30 PM 71.6 °F 53.6 °F 53% 30.15 in - North 23.0 mph - N/A   Clear
4:47 PM 71.6 °F 53.6 °F 53% 30.15 in - North 23.0 mph 35.7 mph N/A   Clear
5:00 PM 71 °F 54 °F 44% 30.17 in - North 27.6 mph - -  
5:00 PM 71.6 °F 53.6 °F 53% 30.15 in - North 27.6 mph - N/A   Clear
5:19 PM 69.8 °F 53.6 °F 56% 30.15 in 6.2 mi North 28.8 mph 40.3 mph N/A Rain Light Rain Showers
5:30 PM 69.8 °F 53.6 °F 56% 30.15 in 6.2 mi North 29.9 mph - N/A Rain Light Rain Showers
5:51 PM 69.8 °F 53.6 °F 56% 30.15 in - North 29.9 mph 41.4 mph N/A   Clear
6:00 PM 69 °F 53 °F 47% 30.18 in 19 mi North 26.5 mph - -   Scattered Clouds
6:02 PM 69.8 °F 53.6 °F 56% 30.15 in - North 25.3 mph 36.8 mph N/A   Clear
6:30 PM 68.0 °F 53.6 °F 60% 30.15 in - North 26.5 mph - N/A   Clear
7:00 PM 69 °F 54 °F 49% 30.18 in - North 26.5 mph - -  
7:00 PM 68.0 °F 53.6 °F 60% 30.15 in 6.2 mi North 26.5 mph - N/A Rain Light Rain Showers
7:11 PM 69.8 °F 53.6 °F 56% 30.15 in 6.2 mi North 26.5 mph 38.0 mph N/A Rain Light Rain Showers
7:30 PM 68.0 °F 53.6 °F 60% 30.15 in - North 27.6 mph - N/A   Clear
7:47 PM 68.0 °F 53.6 °F 60% 30.12 in - North 29.9 mph 41.4 mph N/A   Clear
8:00 PM 68 °F 54 °F 50% 30.15 in - North 31.1 mph - -  
8:00 PM 68.0 °F 53.6 °F 60% 30.12 in - North 31.1 mph - N/A   Clear
8:23 PM 68.0 °F 53.6 °F 60% 30.12 in - North 33.4 mph 44.9 mph N/A   Clear
8:30 PM 68.0 °F 51.8 °F 56% 30.12 in - North 34.5 mph - N/A   Clear
9:00 PM 68 °F 53 °F 47% 30.15 in 16 mi North 28.8 mph - -   Mostly Cloudy
9:00 PM 68.0 °F 51.8 °F 56% 30.12 in - North 28.8 mph - N/A   Clear
9:30 PM 69.8 °F 51.8 °F 53% 30.15 in 6.2 mi North 29.9 mph - N/A Rain Light Rain Showers
9:43 PM 68.0 °F 51.8 °F 56% 30.15 in 6.2 mi North 32.2 mph 49.5 mph N/A   Unknown
10:00 PM 69 °F 52 °F 44% 30.15 in - North 33.4 mph - -  
10:00 PM 68.0 °F 51.8 °F 56% 30.12 in 6.2 mi North 33.4 mph 44.9 mph N/A   Unknown
10:30 PM 69.8 °F 51.8 °F 53% 30.12 in - North 35.7 mph 47.2 mph N/A   Clear
11:00 PM 69 °F 51 °F 43% 30.16 in - North 33.4 mph - -  
11:00 PM 68.0 °F 51.8 °F 56% 30.15 in 6.2 mi North 33.4 mph 44.9 mph N/A   Unknown
11:30 PM 68.0 °F 50.0 °F 52% 30.15 in - North 33.4 mph - N/A   Clear